Location: Alpha Ridge Park
(39.3209°N, 76.9128°W)
Time: 21:49:44
(UTC-04:00)

Transit 2A - Pass Details

Date: 25 May 2019
Orbit: 593 x 966 km, 66.7° (Epoch: 24 June)

Event Time Altitude Azimuth Distance (km) Brightness Sun altitude
Rises 15:47:31 0° 339° (NNW) 3,568 9.5 50.8°
Reaches altitude 10° 15:50:37 10° 352° (N) 2,571 8.8 50.2°
Maximum altitude 15:55:26 25° 46° (NE) 1,648 7.7 49.3°
Drops below altitude 10° 15:59:54 10° 101° (E) 2,363 8.3 48.4°
Sets 16:02:37 0° 115° (ESE) 3,220 8.9 47.9°
